Flag for U.S.A. Weather past 2 weeks in Waterbury, Connecticut, U.S.A.

Now
25 °F

Overcast.


Feels Like: 20 °F
Forecast: 19 / 33 °F
Wind: 3 mph from West

Location: Oxford

Current Time: Mar 1, 2015 at 11:26:01 PM

Latest Report: Mar 1, 2015 at 10:55 PM


Visibility: 3 mi

Pressure: 30.14 "Hg

Humidity: 69%

Dew point: 16 °F

Location of WaterburyLocation

Historic Weather in Waterbury — Graph

°F

Waterbury temperature yesterday

Maximum temperature yesterday: 27 °F (at 3:45 PM)
Minimum temperature yesterday: 1 °F (at 5:15 AM)
Average temperature yesterday: 12 °F

Past Weeks' High & Low Weather Summary

 TemperatureHumidityPressure
High41 °F (Feb 22, 2:50 PM)100% (Feb 15, 11:50 AM)30.74 "Hg (Feb 15, 11:50 AM)
Low-8 °F (Feb 24, 3:55 AM)24% (Feb 16, 1:50 PM)29.36 "Hg (Feb 15, 1:35 AM)
Average14 °F51%30.08 "Hg
* Reported Feb 14 10:15 PM — Mar 1 10:35 PM, Waterbury, Weather by CustomWeather, © 2015

Note: Actual official high and low records may vary slightly from our data, if they occured in-between our weather recording intervals... More about our weather records

Advertising

Waterbury weather history for previous 24 hours

 ConditionsComfort  
Time TempWeatherWind HumidityBarometerVisibility
10:35 PM
Sun, Mar 1
25 °FOvercast.3 mph74%30.15 "Hg2 mi
10:15 PM25 °FOvercast.No wind74%30.16 "Hg2 mi
9:55 PM25 °FMostly cloudy.No wind74%30.18 "Hg1 mi
9:35 PM25 °FMostly cloudy.No wind69%30.18 "Hg1 mi
9:15 PM25 °FLow clouds.No wind69%30.20 "Hg1 mi
8:50 PM25 °FLight snow. Ice fog.3 mph69%30.22 "Hg1 mi
7:50 PM25 °FLight snow. Ice fog.No wind69%30.25 "Hg1 mi
6:50 PM25 °FSnow. Ice fog.3 mph69%30.28 "Hg1 mi
5:50 PM23 °FLight snow. Ice fog.5 mph74%30.31 "Hg1 mi
4:50 PM25 °FLight snow. Ice fog.5 mph69%30.34 "Hg1 mi
3:50 PM34 °FChilly.3 mph100%N/A1 mi
2:55 PM34 °FChilly.3 mph100%N/A1 mi
1:55 PM23 °FLight snow. Ice fog.3 mph63%30.47 "Hg1 mi
12:50 PM23 °FLight snow. Ice fog.3 mph63%30.51 "Hg1 mi
11:55 AM21 °FLight snow. Ice fog.No wind68%30.54 "Hg1 mi
10:48 AM21 °FSnow. Ice fog.No wind58%30.58 "Hg1 mi
9:52 AM21 °FLight snow. Ice fog.6 mph45%30.58 "Hg2 mi
8:50 AM23 °FOvercast.No wind39%30.60 "Hg10 mi
7:55 AM18 °FOvercast.No wind45%30.62 "Hg10 mi
6:55 AM12 °FOvercast.No wind52%30.63 "Hg10 mi
5:55 AM12 °FOvercast.No wind52%30.64 "Hg10 mi
5:35 AM12 °FOvercast.No wind52%30.64 "Hg10 mi
5:15 AM12 °FPassing clouds.No wind48%30.63 "Hg10 mi
4:55 AM10 °FPassing clouds.No wind52%30.62 "Hg10 mi
4:35 AM9 °FClear.No wind51%30.63 "Hg10 mi
4:15 AM9 °FClear.No wind47%30.63 "Hg10 mi
3:55 AM9 °FClear.No wind47%30.63 "Hg10 mi
3:35 AM9 °FClear.No wind47%30.63 "Hg10 mi
3:15 AM7 °FClear.No wind47%30.63 "Hg10 mi
2:55 AM9 °FClear.No wind43%30.64 "Hg10 mi
2:35 AM10 °FClear.No wind40%30.66 "Hg10 mi
2:15 AM12 °FClear.No wind40%30.66 "Hg10 mi
1:55 AM10 °FClear.No wind44%30.66 "Hg10 mi
1:35 AM10 °FClear.No wind40%30.65 "Hg10 mi
1:15 AM10 °FClear.No wind44%30.66 "Hg10 mi
12:55 AM10 °FClear.No wind40%30.67 "Hg10 mi
12:35 AM10 °FClear.No wind40%30.66 "Hg10 mi
12:15 AM12 °FClear.3 mph31%30.66 "Hg10 mi
11:55 PM
Sat, Feb 28
18 °FClear.3 mph35%30.67 "Hg10 mi
11:35 PM10 °FClear.No wind44%30.68 "Hg10 mi
11:15 PM12 °FClear.No wind40%30.68 "Hg10 mi
Weather by CustomWeather, © 2015

See weather overviewHow to use our weather pages